Location: LDNL
(36.4545°S, 141.6685°E)
Time: 03:57:42
(UTC+10:00)

Courier 1B Rocket - Pass Details

Date: 01 June 2024
Orbit: 920 x 1201 km, 28.3° (Epoch: 14 June)

Event Time Altitude Azimuth Distance (km) Brightness Sun altitude
Exits shadow 03:53:11 19° 39° (NE) 2,486 7.3 -44.2°
Drops below altitude 10° 03:55:20 10° 48° (NE) 3,093 8.0 -43.8°
Sets 03:58:29 0° 57° (ENE) 4,076 8.8 -43.1°
